timestamp,wind_dir_avg,wind_spd_max_dir,wind_spd_avg,wind_spd_gust,battery_voltage,lat,long
2019-01-02 00:00:00+00:00,146.0,158.0,9.52,13.04,,47.59359,-54.27349
2019-01-02 00:10:00+00:00,141.0,143.0,7.59,8.82,,47.59359,-54.27349
2019-01-02 00:20:00+00:00,143.0,145.0,8.12,10.07,,47.59359,-54.27349
2019-01-02 00:30:00+00:00,142.0,143.0,8.75,9.95,,47.59359,-54.27349
2019-01-02 00:40:00+00:00,144.0,143.0,8.3,9.89,,47.59359,-54.27349
2019-01-02 00:50:00+00:00,145.0,149.0,8.3,10.02,,47.59359,-54.27349
2019-01-02 01:00:00+00:00,136.0,132.0,7.83,9.5,,47.59359,-54.27349
2019-01-02 01:10:00+00:00,143.0,147.0,6.39,7.17,,47.59359,-54.27349
2019-01-02 01:20:00+00:00,155.0,156.0,7.74,8.85,,47.59359,-54.27349
2019-01-02 01:30:00+00:00,155.0,154.0,8.87,9.8,,47.59359,-54.27349
2019-01-02 01:40:00+00:00,149.0,150.0,9.41,10.72,,47.59359,-54.27349
2019-01-02 01:50:00+00:00,147.0,145.0,9.0,11.94,,47.59359,-54.27349
2019-01-02 02:00:00+00:00,148.0,152.0,11.16,15.11,,47.59359,-54.27349
2019-01-02 02:10:00+00:00,149.0,153.0,10.66,13.53,,47.59359,-54.27349
2019-01-02 02:20:00+00:00,142.0,140.0,7.95,9.32,,47.59359,-54.27349
2019-01-02 02:30:00+00:00,128.0,136.0,5.41,7.89,,47.59359,-54.27349
2019-01-02 02:40:00+00:00,134.0,137.0,7.56,10.08,,47.59359,-54.27349
2019-01-02 02:50:00+00:00,141.0,144.0,9.26,10.51,,47.59359,-54.27349
2019-01-02 03:00:00+00:00,142.0,152.0,10.6,13.72,,47.59359,-54.27349
2019-01-02 03:10:00+00:00,141.0,141.0,9.03,10.86,,47.59359,-54.27349
2019-01-02 03:20:00+00:00,134.0,143.0,10.05,12.44,,47.59359,-54.27349
2019-01-02 03:30:00+00:00,132.0,143.0,9.97,14.77,,47.59359,-54.27349
2019-01-02 03:40:00+00:00,138.0,150.0,11.9,16.8,,47.59359,-54.27349
2019-01-02 03:50:00+00:00,118.0,90.0,5.9,14.25,,47.59359,-54.27349
2019-01-02 04:00:00+00:00,113.0,91.0,7.5,13.05,,47.59359,-54.27349
2019-01-02 04:10:00+00:00,107.0,89.0,7.56,15.74,,47.59359,-54.27349
2019-01-02 04:20:00+00:00,116.0,117.0,7.12,11.75,,47.59359,-54.27349
2019-01-02 04:30:00+00:00,111.0,122.0,8.32,12.03,,47.59359,-54.27349
2019-01-02 04:40:00+00:00,104.0,87.0,6.65,13.82,,47.59359,-54.27349
2019-01-02 04:50:00+00:00,110.0,109.0,6.94,12.0,,47.59359,-54.27349
2019-01-02 05:00:00+00:00,112.0,100.0,7.33,12.26,,47.59359,-54.27349
2019-01-02 05:10:00+00:00,108.0,89.0,8.38,15.0,,47.59359,-54.27349
2019-01-02 05:20:00+00:00,114.0,112.0,7.83,13.42,,47.59359,-54.27349
2019-01-02 05:30:00+00:00,124.0,113.0,7.61,13.02,,47.59359,-54.27349
2019-01-02 05:40:00+00:00,96.0,90.0,6.86,11.01,,47.59359,-54.27349
2019-01-02 05:50:00+00:00,119.0,142.0,8.52,14.7,,47.59359,-54.27349
2019-01-02 06:00:00+00:00,115.0,96.0,8.4,15.03,,47.59359,-54.27349
2019-01-02 06:10:00+00:00,97.0,116.0,7.04,12.24,,47.59359,-54.27349
2019-01-02 06:20:00+00:00,112.0,99.0,9.43,15.25,,47.59359,-54.27349
2019-01-02 06:30:00+00:00,101.0,94.0,7.45,15.34,,47.59359,-54.27349
2019-01-02 06:40:00+00:00,112.0,137.0,6.3,10.06,,47.59359,-54.27349
2019-01-02 06:50:00+00:00,115.0,106.0,5.91,12.09,,47.59359,-54.27349
2019-01-02 07:00:00+00:00,127.0,130.0,7.23,11.22,,47.59359,-54.27349
2019-01-02 07:10:00+00:00,118.0,87.0,6.4,9.95,,47.59359,-54.27349
2019-01-02 07:20:00+00:00,120.0,140.0,5.29,10.9,,47.59359,-54.27349
2019-01-02 07:30:00+00:00,126.0,109.0,8.36,13.3,,47.59359,-54.27349
2019-01-02 07:40:00+00:00,124.0,139.0,7.74,11.6,,47.59359,-54.27349
2019-01-02 07:50:00+00:00,125.0,131.0,8.69,11.74,,47.59359,-54.27349
2019-01-02 08:00:00+00:00,135.0,139.0,9.71,10.82,,47.59359,-54.27349
2019-01-02 08:10:00+00:00,128.0,135.0,7.49,11.78,,47.59359,-54.27349
2019-01-02 08:20:00+00:00,130.0,134.0,7.73,10.64,,47.59359,-54.27349
2019-01-02 08:30:00+00:00,135.0,144.0,7.61,9.96,,47.59359,-54.27349
2019-01-02 08:40:00+00:00,139.0,140.0,8.59,11.15,,47.59359,-54.27349
2019-01-02 08:50:00+00:00,136.0,139.0,9.54,11.36,,47.59359,-54.27349
2019-01-02 09:00:00+00:00,142.0,146.0,8.93,10.58,,47.59359,-54.27349
2019-01-02 09:10:00+00:00,144.0,143.0,7.54,9.57,,47.59359,-54.27349
2019-01-02 09:20:00+00:00,146.0,151.0,6.4,7.52,,47.59359,-54.27349
2019-01-02 09:30:00+00:00,146.0,148.0,5.07,5.94,,47.59359,-54.27349
2019-01-02 13:00:00+00:00,335.0,333.0,18.01,18.76,,47.59359,-54.27349
2019-01-02 13:10:00+00:00,341.0,339.0,17.28,21.06,,47.59359,-54.27349
2019-01-02 13:20:00+00:00,334.0,340.0,16.32,18.68,,47.59359,-54.27349
2019-01-02 13:30:00+00:00,340.0,343.0,18.38,21.87,,47.59359,-54.27349
2019-01-02 13:40:00+00:00,341.0,340.0,16.19,19.02,,47.59359,-54.27349
2019-01-02 13:50:00+00:00,341.0,346.0,18.35,23.16,,47.59359,-54.27349
2019-01-02 14:00:00+00:00,344.0,346.0,15.44,18.52,,47.59359,-54.27349
2019-01-02 14:10:00+00:00,341.0,337.0,15.94,19.1,,47.59359,-54.27349
2019-01-02 14:20:00+00:00,338.0,332.0,15.48,18.54,,47.59359,-54.27349
2019-01-02 14:30:00+00:00,340.0,336.0,17.0,19.78,,47.59359,-54.27349
2019-01-02 14:40:00+00:00,341.0,350.0,17.06,22.06,,47.59359,-54.27349
2019-01-02 14:50:00+00:00,334.0,334.0,16.65,18.79,,47.59359,-54.27349
2019-01-02 15:00:00+00:00,336.0,345.0,17.61,20.83,,47.59359,-54.27349
2019-01-02 15:10:00+00:00,340.0,347.0,16.76,19.34,,47.59359,-54.27349
2019-01-02 15:20:00+00:00,339.0,329.0,16.43,20.16,,47.59359,-54.27349
2019-01-02 15:30:00+00:00,330.0,328.0,15.06,18.14,,47.59359,-54.27349
2019-01-02 15:40:00+00:00,326.0,319.0,15.48,18.41,,47.59359,-54.27349
2019-01-02 15:50:00+00:00,323.0,323.0,16.91,21.72,,47.59359,-54.27349
2019-01-02 16:00:00+00:00,322.0,319.0,15.33,18.56,,47.59359,-54.27349
2019-01-02 16:10:00+00:00,322.0,313.0,14.24,16.12,,47.59359,-54.27349
2019-01-02 16:20:00+00:00,322.0,336.0,15.09,18.42,,47.59359,-54.27349
2019-01-02 16:30:00+00:00,323.0,322.0,13.58,17.96,,47.59359,-54.27349
2019-01-02 16:40:00+00:00,317.0,318.0,16.41,25.69,,47.59359,-54.27349
2019-01-02 16:50:00+00:00,314.0,310.0,17.18,20.16,,47.59359,-54.27349
2019-01-02 17:00:00+00:00,315.0,312.0,16.71,20.11,,47.59359,-54.27349
2019-01-02 17:10:00+00:00,321.0,336.0,17.3,20.5,,47.59359,-54.27349
2019-01-02 17:20:00+00:00,324.0,333.0,18.44,24.07,,47.59359,-54.27349
2019-01-02 17:30:00+00:00,331.0,337.0,20.47,26.36,,47.59359,-54.27349
2019-01-02 17:40:00+00:00,323.0,323.0,17.1,21.16,,47.59359,-54.27349
2019-01-02 17:50:00+00:00,327.0,325.0,15.75,18.15,,47.59359,-54.27349
2019-01-02 18:00:00+00:00,325.0,334.0,15.61,18.76,,47.59359,-54.27349
2019-01-02 18:10:00+00:00,324.0,325.0,16.71,20.07,,47.59359,-54.27349
2019-01-02 18:20:00+00:00,320.0,323.0,13.24,17.86,,47.59359,-54.27349
2019-01-02 18:30:00+00:00,321.0,314.0,13.15,16.31,,47.59359,-54.27349
2019-01-02 18:40:00+00:00,323.0,333.0,14.27,16.62,,47.59359,-54.27349
2019-01-02 18:50:00+00:00,324.0,320.0,16.74,21.01,,47.59359,-54.27349
2019-01-02 19:00:00+00:00,322.0,322.0,15.17,20.26,,47.59359,-54.27349
2019-01-02 19:10:00+00:00,325.0,332.0,15.79,19.49,,47.59359,-54.27349
2019-01-02 19:20:00+00:00,323.0,324.0,14.79,18.54,,47.59359,-54.27349
2019-01-02 19:30:00+00:00,316.0,326.0,16.77,21.04,,47.59359,-54.27349
2019-01-02 19:40:00+00:00,326.0,324.0,15.57,20.07,,47.59359,-54.27349
2019-01-02 19:50:00+00:00,329.0,333.0,16.5,20.07,,47.59359,-54.27349
2019-01-02 20:00:00+00:00,325.0,322.0,18.04,21.23,,47.59359,-54.27349
2019-01-02 20:10:00+00:00,331.0,332.0,16.68,19.33,,47.59359,-54.27349
2019-01-02 20:20:00+00:00,329.0,336.0,17.95,22.0,,47.59359,-54.27349
2019-01-02 20:30:00+00:00,328.0,335.0,14.92,18.0,,47.59359,-54.27349
2019-01-02 20:40:00+00:00,329.0,338.0,19.59,25.12,,47.59359,-54.27349
2019-01-02 20:50:00+00:00,328.0,326.0,15.76,19.11,,47.59359,-54.27349
2019-01-02 21:00:00+00:00,330.0,333.0,17.15,21.34,,47.59359,-54.27349
2019-01-02 21:10:00+00:00,333.0,331.0,16.41,21.1,,47.59359,-54.27349
2019-01-02 21:20:00+00:00,334.0,342.0,16.24,19.15,,47.59359,-54.27349
2019-01-02 21:30:00+00:00,330.0,331.0,16.06,18.09,,47.59359,-54.27349
2019-01-02 21:40:00+00:00,333.0,335.0,15.57,18.13,,47.59359,-54.27349
2019-01-02 21:50:00+00:00,332.0,329.0,17.39,21.91,,47.59359,-54.27349
2019-01-02 22:00:00+00:00,328.0,329.0,19.63,24.1,,47.59359,-54.27349
2019-01-02 22:10:00+00:00,333.0,335.0,20.43,25.01,,47.59359,-54.27349
2019-01-02 22:20:00+00:00,332.0,327.0,17.31,22.53,,47.59359,-54.27349
2019-01-02 22:30:00+00:00,332.0,330.0,16.85,20.96,,47.59359,-54.27349
2019-01-02 22:40:00+00:00,328.0,328.0,15.94,20.21,,47.59359,-54.27349
2019-01-02 22:50:00+00:00,333.0,326.0,18.27,22.61,,47.59359,-54.27349
2019-01-02 23:00:00+00:00,331.0,333.0,18.33,21.62,,47.59359,-54.27349
2019-01-02 23:10:00+00:00,332.0,330.0,15.65,18.49,,47.59359,-54.27349
2019-01-02 23:20:00+00:00,327.0,329.0,16.48,20.11,,47.59359,-54.27349
2019-01-02 23:30:00+00:00,330.0,337.0,17.38,20.58,,47.59359,-54.27349
2019-01-02 23:40:00+00:00,332.0,330.0,15.75,18.11,,47.59359,-54.27349
2019-01-02 23:50:00+00:00,326.0,325.0,14.62,18.53,,47.59359,-54.27349
